| time (UTC) | temp F | wind direction | speed MPH | gust MPH | rain 1hr in | rain 24hr in | rain mn in | humidity % | barometer mb |
| 20260508034546 | 51 | 333 | 0.0 | 0.0 | 0.00 | 0.30 | 0.28 | 79 | 1015.0 |
| 20260508034046 | 51 | 333 | 0.0 | 2.0 | 0.00 | 0.30 | 0.28 | 79 | 1014.9 |
| 20260508033547 | 51 | 313 | 0.0 | 1.0 | 0.00 | 0.30 | 0.28 | 78 | 1015.0 |
| 20260508033044 | 51 | 313 | 0.0 | 0.0 | 0.00 | 0.30 | 0.28 | 78 | 1014.9 |
| 20260508032544 | 52 | 313 | 0.0 | 0.0 | 0.00 | 0.30 | 0.28 | 77 | 1014.8 |
| 20260508032045 | 52 | 313 | 0.0 | 1.0 | 0.00 | 0.30 | 0.28 | 76 | 1014.9 |
| 20260508031541 | 53 | 313 | 0.0 | 1.0 | 0.00 | 0.30 | 0.28 | 75 | 1014.8 |
| 20260508031040 | 53 | 313 | 0.0 | 0.0 | 0.00 | 0.30 | 0.28 | 74 | 1014.8 |
| 20260508030539 | 53 | 313 | 0.0 | 0.0 | 0.00 | 0.30 | 0.28 | 72 | 1014.7 |
| 20260508030044 | 54 | 313 | 0.0 | 0.0 | 0.00 | 0.30 | 0.28 | 72 | 1014.8 |
| 20260508025536 | 54 | 313 | 0.0 | 1.0 | 0.00 | 0.33 | 0.28 | 70 | 1014.7 |
| 20260508025035 | 55 | 313 | 0.0 | 3.0 | 0.00 | 0.33 | 0.28 | 70 | 1014.6 |
| 20260508024538 | 55 | 324 | 0.0 | 3.0 | 0.00 | 0.33 | 0.28 | 70 | 1014.4 |
| 20260508024034 | 55 | 264 | 0.0 | 3.0 | 0.00 | 0.33 | 0.28 | 69 | 1014.3 |
| 20260508023534 | 55 | 281 | 0.0 | 3.0 | 0.00 | 0.33 | 0.28 | 71 | 1014.2 |
| 20260508023034 | 55 | 281 | 1.0 | 5.0 | 0.00 | 0.33 | 0.28 | 71 | 1014.2 |
| 20260508022533 | 55 | 284 | 1.0 | 3.0 | 0.00 | 0.33 | 0.28 | 69 | 1014.3 |
| 20260508022033 | 55 | 245 | 1.0 | 3.0 | 0.00 | 0.33 | 0.28 | 69 | 1014.3 |
| 20260508021539 | 56 | 277 | 0.0 | 5.0 | 0.00 | 0.33 | 0.28 | 68 | 1014.1 |
| 20260508021033 | 56 | 279 | 2.0 | 5.0 | 0.00 | 0.33 | 0.28 | 68 | 1014.1 |
| 20260508020529 | 56 | 311 | 0.0 | 2.0 | 0.00 | 0.33 | 0.28 | 67 | 1013.9 |
| 20260508020029 | 56 | 311 | 0.0 | 3.0 | 0.00 | 0.33 | 0.28 | 68 | 1013.8 |
| 20260508015528 | 56 | 311 | 0.0 | 5.0 | 0.00 | 0.37 | 0.28 | 69 | 1013.7 |
| 20260508015028 | 56 | 304 | 2.0 | 5.0 | 0.00 | 0.37 | 0.28 | 68 | 1013.6 |
| 20260508014528 | 56 | 287 | 1.0 | 4.0 | 0.00 | 0.37 | 0.28 | 68 | 1013.5 |
| 20260508014027 | 57 | 311 | 1.0 | 6.0 | 0.00 | 0.37 | 0.28 | 67 | 1013.4 |
| 20260508013527 | 57 | 306 | 2.0 | 11.0 | 0.00 | 0.37 | 0.28 | 66 | 1013.4 |
| 20260508013037 | 57 | 306 | 1.0 | 7.0 | 0.00 | 0.37 | 0.28 | 68 | 1013.4 |
| 20260508012527 | 57 | 314 | 1.0 | 7.0 | 0.00 | 0.37 | 0.28 | 67 | 1013.4 |
| 20260508012027 | 57 | 317 | 1.0 | 4.0 | 0.00 | 0.37 | 0.28 | 68 | 1013.4 |
| 20260508011527 | 57 | 335 | 2.0 | 8.0 | 0.00 | 0.37 | 0.28 | 67 | 1013.2 |
| 20260508011029 | 57 | 280 | 1.0 | 8.0 | 0.00 | 0.37 | 0.28 | 66 | 1013.1 |
| 20260508010525 | 57 | 273 | 1.0 | 7.0 | 0.00 | 0.37 | 0.28 | 67 | 1012.9 |
| 20260508010025 | 57 | 297 | 1.0 | 7.0 | 0.00 | 0.37 | 0.28 | 67 | 1012.9 |
| 20260508005527 | 57 | 316 | 0.0 | 7.0 | 0.00 | 0.46 | 0.28 | 66 | 1012.8 |
| 20260508005026 | 57 | 310 | 2.0 | 9.0 | 0.00 | 0.46 | 0.28 | 65 | 1012.7 |
| 20260508004535 | 57 | 279 | 1.0 | 7.0 | 0.00 | 0.46 | 0.28 | 66 | 1012.7 |
| 20260508004023 | 57 | 316 | 1.0 | 6.0 | 0.00 | 0.46 | 0.28 | 67 | 1012.6 |
| 20260508003522 | 57 | 338 | 2.0 | 6.0 | 0.00 | 0.46 | 0.28 | 67 | 1012.5 |
| 20260508003024 | 58 | 313 | 1.0 | 7.0 | 0.00 | 0.46 | 0.28 | 68 | 1012.4 |
| 20260508002521 | 58 | 251 | 2.0 | 8.0 | 0.00 | 0.46 | 0.28 | 66 | 1012.4 |
| 20260508002020 | 58 | 292 | 2.0 | 8.0 | 0.00 | 0.46 | 0.28 | 66 | 1012.5 |
| 20260508001519 | 58 | 350 | 2.0 | 11.0 | 0.00 | 0.46 | 0.28 | 66 | 1012.4 |
| 20260508001018 | 58 | 275 | 2.0 | 8.0 | 0.00 | 0.46 | 0.28 | 63 | 1012.5 |
| 20260508000517 | 59 | 319 | 1.0 | 7.0 | 0.00 | 0.46 | 0.28 | 65 | 1012.5 |
| 20260508000016 | 59 | 291 | 1.0 | 7.0 | 0.00 | 0.46 | 0.28 | 65 | 1012.5 |
| 20260507235515 | 59 | 231 | 0.0 | 7.0 | 0.00 | 0.49 | 0.28 | 64 | 1012.3 |
| 20260507235017 | 60 | 22 | 2.0 | 7.0 | 0.00 | 0.49 | 0.28 | 65 | 1012.3 |
| 20260507234514 | 60 | 306 | 1.0 | 4.0 | 0.00 | 0.49 | 0.28 | 66 | 1012.3 |
| 20260507234013 | 60 | 220 | 1.0 | 7.0 | 0.00 | 0.49 | 0.28 | 67 | 1012.3 |
| 20260507233512 | 60 | 13 | 1.0 | 5.0 | 0.00 | 0.49 | 0.28 | 67 | 1012.1 |
| 20260507233020 | 61 | 22 | 1.0 | 5.0 | 0.00 | 0.49 | 0.28 | 64 | 1012.0 |
| 20260507232512 | 61 | 238 | 1.0 | 6.0 | 0.00 | 0.49 | 0.28 | 65 | 1011.9 |
| 20260507232012 | 61 | 344 | 2.0 | 7.0 | 0.00 | 0.49 | 0.28 | 65 | 1011.9 |
| 20260507231511 | 62 | 35 | 0.0 | 4.0 | 0.00 | 0.49 | 0.28 | 64 | 1012.0 |
| 20260507231012 | 62 | 101 | 1.0 | 8.0 | 0.00 | 0.49 | 0.28 | 63 | 1011.9 |
| 20260507230510 | 63 | 39 | 1.0 | 4.0 | 0.00 | 0.49 | 0.28 | 65 | 1011.7 |
| 20260507230010 | 63 | 300 | 1.0 | 5.0 | 0.00 | 0.49 | 0.28 | 66 | 1011.8 |
| 20260507225509 | 63 | 288 | 1.0 | 4.0 | 0.00 | 0.50 | 0.28 | 66 | 1011.5 |
| 20260507225009 | 63 | 19 | 0.0 | 4.0 | 0.00 | 0.50 | 0.28 | 64 | 1011.3 |
| 20260507224509 | 64 | 322 | 0.0 | 5.0 | 0.00 | 0.50 | 0.28 | 65 | 1011.3 |
| 20260507224010 | 64 | 355 | 1.0 | 5.0 | 0.00 | 0.50 | 0.28 | 64 | 1011.0 |
| 20260507223509 | 64 | 105 | 1.0 | 6.0 | 0.00 | 0.50 | 0.28 | 62 | 1011.0 |
| 20260507223009 | 65 | 297 | 1.0 | 6.0 | 0.00 | 0.50 | 0.28 | 64 | 1010.8 |
| 20260507222508 | 65 | 22 | 2.0 | 4.0 | 0.00 | 0.50 | 0.28 | 62 | 1010.7 |
| 20260507222007 | 66 | 355 | 1.0 | 5.0 | 0.00 | 0.50 | 0.28 | 63 | 1010.8 |
| 20260507221515 | 67 | 355 | 2.0 | 5.0 | 0.00 | 0.50 | 0.28 | 62 | 1010.7 |
| 20260507221010 | 68 | 330 | 1.0 | 4.0 | 0.00 | 0.50 | 0.28 | 65 | 1010.3 |
| 20260507220507 | 69 | 324 | 1.0 | 11.0 | 0.00 | 0.50 | 0.28 | 58 | 1010.1 |
| 20260507220010 | 70 | 273 | 2.0 | 11.0 | 0.00 | 0.50 | 0.28 | 57 | 1010.0 |
| 20260507215506 | 70 | 210 | 2.0 | 11.0 | 0.00 | 0.50 | 0.28 | 56 | 1009.9 |
| 20260507215006 | 70 | 211 | 3.0 | 11.0 | 0.00 | 0.50 | 0.28 | 55 | 1009.8 |
| 20260507214509 | 71 | 259 | 2.0 | 9.0 | 0.00 | 0.50 | 0.28 | 56 | 1009.6 |
| 20260507214008 | 71 | 69 | 3.0 | 9.0 | 0.00 | 0.50 | 0.28 | 55 | 1009.7 |
| 20260507213509 | 71 | 296 | 1.0 | 9.0 | 0.00 | 0.50 | 0.28 | 58 | 1009.6 |
| 20260507213005 | 71 | 355 | 1.0 | 9.0 | 0.00 | 0.50 | 0.28 | 59 | 1009.4 |
| 20260507212504 | 71 | 36 | 0.0 | 9.0 | 0.00 | 0.50 | 0.28 | 60 | 1009.2 |
| 20260507212005 | 71 | 327 | 1.0 | 10.0 | 0.00 | 0.50 | 0.28 | 63 | 1009.1 |
| 20260507211505 | 71 | 281 | 2.0 | 10.0 | 0.00 | 0.50 | 0.28 | 57 | 1009.0 |
| 20260507211004 | 71 | 219 | 1.0 | 10.0 | 0.00 | 0.50 | 0.28 | 59 | 1008.9 |
| 20260507210503 | 72 | 276 | 3.0 | 9.0 | 0.00 | 0.50 | 0.28 | 59 | 1009.1 |
| 20260507210009 | 73 | 293 | 1.0 | 11.0 | 0.00 | 0.50 | 0.28 | 61 | 1008.9 |
| 20260507205503 | 73 | 264 | 4.0 | 15.0 | 0.00 | 0.50 | 0.28 | 56 | 1008.8 |
| 20260507205004 | 73 | 276 | 4.0 | 15.0 | 0.00 | 0.50 | 0.28 | 56 | 1008.9 |
| 20260507204503 | 74 | 296 | 5.0 | 12.0 | 0.00 | 0.50 | 0.28 | 58 | 1008.8 |
| 20260507204003 | 74 | 346 | 2.0 | 9.0 | 0.00 | 0.50 | 0.28 | 64 | 1008.7 |
| 20260507203503 | 74 | 270 | 1.0 | 10.0 | 0.00 | 0.50 | 0.28 | 63 | 1008.6 |
| 20260507203002 | 75 | 294 | 4.0 | 11.0 | 0.00 | 0.50 | 0.28 | 56 | 1008.6 |
| 20260507202503 | 74 | 325 | 1.0 | 9.0 | 0.00 | 0.50 | 0.28 | 61 | 1008.4 |
| 20260507202001 | 74 | 321 | 2.0 | 6.0 | 0.00 | 0.50 | 0.28 | 58 | 1008.5 |
| 20260507201507 | 76 | 69 | 2.0 | 9.0 | 0.00 | 0.50 | 0.28 | 65 | 1008.5 |
| 20260507201002 | 76 | 305 | 3.0 | 9.0 | 0.00 | 0.50 | 0.28 | 61 | 1008.5 |
| 20260507200500 | 76 | 304 | 2.0 | 9.0 | 0.00 | 0.50 | 0.28 | 59 | 1008.2 |
| 20260507200001 | 76 | 231 | 1.0 | 7.0 | 0.00 | 0.50 | 0.28 | 65 | 1008.2 |
| 20260507195600 | 75 | 286 | 1.0 | 9.0 | 0.00 | 0.50 | 0.28 | 65 | 1008.1 |
| 20260507195103 | 74 | 247 | 2.0 | 9.0 | 0.00 | 0.50 | 0.28 | 61 | 1008.2 |
| 20260507194635 | 76 | 347 | 1.0 | 9.0 | 0.00 | 0.50 | 0.28 | 56 | 1008.1 |
| 20260507194059 | 76 | 288 | 3.0 | 10.0 | 0.00 | 0.50 | 0.28 | 59 | 1008.1 |
| 20260507193558 | 76 | 306 | 2.0 | 8.0 | 0.00 | 0.50 | 0.28 | 60 | 1008.2 |
| 20260507193058 | 77 | 296 | 1.0 | 7.0 | 0.00 | 0.50 | 0.28 | 65 | 1008.2 |
| 20260507192556 | 76 | 82 | 1.0 | 7.0 | 0.00 | 0.50 | 0.28 | 62 | 1008.1 |
| 20260507192056 | 76 | 314 | 2.0 | 5.0 | 0.00 | 0.50 | 0.28 | 64 | 1008.2 |
| 20260507191555 | 76 | 355 | 1.0 | 5.0 | 0.00 | 0.50 | 0.28 | 71 | 1008.3 |
| 20260507191053 | 73 | 15 | 1.0 | 5.0 | 0.00 | 0.50 | 0.28 | 74 | 1008.4 |
| 20260507190553 | 73 | 5 | 0.0 | 5.0 | 0.00 | 0.50 | 0.28 | 68 | 1008.3 |
| 20260507190053 | 74 | 290 | 0.0 | 4.0 | 0.00 | 0.50 | 0.28 | 70 | 1008.3 |
| 20260507185552 | 74 | 329 | 1.0 | 4.0 | 0.00 | 0.50 | 0.28 | 75 | 1008.5 |
| 20260507185052 | 74 | 346 | 1.0 | 5.0 | 0.00 | 0.50 | 0.28 | 69 | 1008.4 |
| 20260507184603 | 74 | 355 | 2.0 | 5.0 | 0.00 | 0.50 | 0.28 | 71 | 1008.4 |
| 20260507184051 | 75 | 302 | 0.0 | 9.0 | 0.00 | 0.50 | 0.28 | 72 | 1008.5 |
| 20260507183550 | 75 | 199 | 1.0 | 9.0 | 0.00 | 0.50 | 0.28 | 71 | 1008.5 |
| 20260507183050 | 75 | 213 | 1.0 | 7.0 | 0.00 | 0.50 | 0.28 | 66 | 1008.5 |
| 20260507182548 | 75 | 234 | 2.0 | 6.0 | 0.00 | 0.50 | 0.28 | 70 | 1008.6 |
| 20260507182047 | 75 | 175 | 2.0 | 6.0 | 0.00 | 0.50 | 0.28 | 66 | 1008.7 |
| 20260507181545 | 75 | 239 | 2.0 | 7.0 | 0.00 | 0.50 | 0.28 | 70 | 1008.7 |
| 20260507181044 | 73 | 263 | 0.0 | 4.0 | 0.00 | 0.50 | 0.28 | 73 | 1008.7 |
| 20260507180548 | 72 | 289 | 1.0 | 5.0 | 0.00 | 0.50 | 0.28 | 73 | 1008.7 |
| 20260507180044 | 73 | 265 | 0.0 | 5.0 | 0.00 | 0.50 | 0.28 | 72 | 1008.6 |
| 20260507175545 | 73 | 178 | 0.0 | 3.0 | 0.00 | 0.50 | 0.28 | 68 | 1008.7 |
| 20260507175044 | 74 | 126 | 1.0 | 3.0 | 0.00 | 0.50 | 0.28 | 69 | 1008.7 |
| 20260507174548 | 74 | 263 | 1.0 | 5.0 | 0.00 | 0.50 | 0.28 | 72 | 1008.7 |
| 20260507174042 | 73 | 226 | 0.0 | 5.0 | 0.00 | 0.50 | 0.28 | 72 | 1008.8 |
| 20260507173541 | 74 | 78 | 2.0 | 6.0 | 0.00 | 0.50 | 0.28 | 73 | 1008.8 |
| 20260507173041 | 75 | 214 | 2.0 | 9.0 | 0.00 | 0.50 | 0.28 | 73 | 1008.8 |
| 20260507172539 | 73 | 127 | 4.0 | 9.0 | 0.00 | 0.50 | 0.28 | 73 | 1008.7 |
| 20260507172038 | 72 | 175 | 0.0 | 3.0 | 0.00 | 0.50 | 0.28 | 75 | 1008.7 |
| 20260507171545 | 72 | 219 | 0.0 | 3.0 | 0.00 | 0.50 | 0.28 | 74 | 1008.9 |
| 20260507171037 | 72 | 209 | 1.0 | 5.0 | 0.00 | 0.50 | 0.28 | 77 | 1009.0 |
| 20260507170535 | 72 | 113 | 2.0 | 5.0 | 0.00 | 0.50 | 0.28 | 77 | 1009.0 |
| 20260507170039 | 72 | 217 | 1.0 | 7.0 | 0.00 | 0.50 | 0.28 | 80 | 1009.0 |
| 20260507165534 | 72 | 280 | 1.0 | 7.0 | 0.00 | 0.53 | 0.28 | 77 | 1009.2 |
| 20260507165034 | 73 | 26 | 0.0 | 7.0 | 0.00 | 0.53 | 0.28 | 80 | 1009.3 |
| 20260507164534 | 72 | 311 | 1.0 | 7.0 | 0.00 | 0.53 | 0.28 | 76 | 1009.3 |
| 20260507164034 | 71 | 91 | 0.0 | 5.0 | 0.00 | 0.53 | 0.28 | 75 | 1009.5 |
| 20260507163532 | 72 | 225 | 0.0 | 3.0 | 0.00 | 0.53 | 0.28 | 84 | 1009.5 |
| 20260507163031 | 72 | 267 | 1.0 | 5.0 | 0.00 | 0.53 | 0.28 | 85 | 1009.8 |
| 20260507162532 | 71 | 288 | 2.0 | 5.0 | 0.00 | 0.53 | 0.28 | 79 | 1009.8 |
| 20260507162031 | 71 | 165 | 2.0 | 4.0 | 0.00 | 0.53 | 0.28 | 80 | 1010.0 |
| 20260507161535 | 71 | 268 | 1.0 | 4.0 | 0.00 | 0.53 | 0.28 | 84 | 1010.0 |
| 20260507161027 | 70 | 208 | 2.0 | 5.0 | 0.00 | 0.53 | 0.28 | 83 | 1010.2 |
| 20260507160528 | 70 | 243 | 2.0 | 5.0 | 0.00 | 0.53 | 0.28 | 84 | 1010.1 |
| 20260507160029 | 69 | 241 | 1.0 | 4.0 | 0.00 | 0.53 | 0.28 | 85 | 1010.0 |
| 20260507155526 | 69 | 211 | 1.0 | 6.0 | 0.00 | 0.56 | 0.28 | 84 | 1009.9 |
| 20260507155026 | 69 | 246 | 1.0 | 6.0 | 0.00 | 0.56 | 0.28 | 87 | 1009.8 |
| 20260507154531 | 69 | 279 | 2.0 | 6.0 | 0.00 | 0.56 | 0.28 | 87 | 1009.9 |
| 20260507154025 | 68 | 302 | 1.0 | 4.0 | 0.00 | 0.56 | 0.28 | 87 | 1009.7 |
| 20260507153523 | 68 | 277 | 2.0 | 4.0 | 0.00 | 0.56 | 0.28 | 90 | 1009.5 |
| 20260507153035 | 67 | 228 | 0.0 | 2.0 | 0.00 | 0.56 | 0.28 | 90 | 1009.6 |
| 20260507152522 | 66 | 208 | 0.0 | 2.0 | 0.00 | 0.56 | 0.28 | 89 | 1009.7 |
| 20260507152021 | 67 | 266 | 0.0 | 2.0 | 0.00 | 0.56 | 0.28 | 92 | 1009.8 |
| 20260507151520 | 67 | 236 | 0.0 | 2.0 | 0.00 | 0.56 | 0.28 | 93 | 1009.9 |
| 20260507151018 | 66 | 227 | 0.0 | 2.0 | 0.00 | 0.56 | 0.28 | 93 | 1010.0 |
| 20260507150517 | 66 | 91 | 0.0 | 2.0 | 0.00 | 0.56 | 0.28 | 94 | 1010.2 |
| 20260507150016 | 66 | 276 | 0.0 | 2.0 | 0.00 | 0.56 | 0.28 | 96 | 1010.4 |
| 20260507145514 | 65 | 219 | 0.0 | 2.0 | 0.00 | 0.56 | 0.28 | 96 | 1010.4 |
| 20260507145013 | 65 | 246 | 0.0 | 0.0 | 0.00 | 0.56 | 0.28 | 97 | 1010.4 |
| 20260507144513 | 64 | 220 | 0.0 | 1.0 | 0.00 | 0.56 | 0.28 | 97 | 1010.2 |
| 20260507144013 | 64 | 202 | 0.0 | 0.0 | 0.00 | 0.56 | 0.28 | 97 | 1010.4 |
| 20260507143512 | 64 | 232 | 0.0 | 0.0 | 0.00 | 0.56 | 0.28 | 97 | 1010.5 |
| 20260507143021 | 64 | 280 | 0.0 | 0.0 | 0.00 | 0.56 | 0.28 | 98 | 1010.7 |
| 20260507142512 | 63 | 280 | 0.0 | 2.0 | 0.00 | 0.56 | 0.28 | 98 | 1010.8 |
| 20260507142011 | 63 | 288 | 0.0 | 2.0 | 0.00 | 0.56 | 0.28 | 98 | 1010.8 |
| 20260507141511 | 63 | 247 | 0.0 | 0.0 | 0.00 | 0.56 | 0.28 | 98 | 1010.8 |
| 20260507141010 | 63 | 247 | 0.0 | 0.0 | 0.00 | 0.56 | 0.28 | 98 | 1010.8 |
| 20260507140511 | 63 | 247 | 0.0 | 0.0 | 0.00 | 0.56 | 0.28 | 98 | 1010.8 |
| 20260507140012 | 63 | 246 | 0.0 | 0.0 | 0.00 | 0.56 | 0.28 | 98 | 1010.8 |
| 20260507135510 | 63 | 246 | 0.0 | 0.0 | 0.00 | 0.56 | 0.28 | 98 | 1010.5 |
| 20260507135011 | 63 | 256 | 0.0 | 0.0 | 0.00 | 0.56 | 0.28 | 98 | 1010.6 |
| 20260507134510 | 62 | 256 | 0.0 | 2.0 | 0.00 | 0.56 | 0.28 | 98 | 1010.2 |
| 20260507134009 | 63 | 252 | 0.0 | 2.0 | 0.00 | 0.56 | 0.28 | 98 | 1010.4 |
| 20260507133509 | 63 | 252 | 0.0 | 2.0 | 0.00 | 0.56 | 0.28 | 98 | 1010.7 |
| 20260507133010 | 63 | 5 | 0.0 | 0.0 | 0.00 | 0.56 | 0.28 | 98 | 1010.5 |
| 20260507132510 | 62 | 5 | 0.0 | 0.0 | 0.00 | 0.56 | 0.28 | 98 | 1010.5 |
| 20260507132010 | 62 | 75 | 0.0 | 0.0 | 0.00 | 0.56 | 0.28 | 98 | 1010.4 |
| 20260507131516 | 62 | 75 | 0.0 | 0.0 | 0.01 | 0.56 | 0.28 | 98 | 1010.4 |
| 20260507131008 | 62 | 75 | 0.0 | 0.0 | 0.02 | 0.56 | 0.28 | 98 | 1010.4 |
| 20260507130511 | 62 | 75 | 0.0 | 0.0 | 0.02 | 0.56 | 0.28 | 98 | 1010.6 |
| 20260507130012 | 62 | 75 | 0.0 | 0.0 | 0.04 | 0.56 | 0.28 | 98 | 1010.6 |
| 20260507125508 | 62 | 75 | 0.0 | 0.0 | 0.05 | 0.56 | 0.28 | 98 | 1010.4 |
| 20260507125012 | 62 | 96 | 0.0 | 0.0 | 0.06 | 0.56 | 0.28 | 98 | 1010.4 |
| 20260507124607 | 62 | 96 | 0.0 | 0.0 | 0.08 | 0.56 | 0.28 | 98 | 1010.4 |
| 20260507124008 | 62 | 183 | 0.0 | 0.0 | 0.10 | 0.56 | 0.28 | 98 | 1010.6 |
| 20260507123507 | 62 | 183 | 0.0 | 0.0 | 0.12 | 0.56 | 0.28 | 98 | 1010.5 |
| 20260507123006 | 61 | 183 | 0.0 | 0.0 | 0.14 | 0.56 | 0.28 | 98 | 1010.6 |
| 20260507122507 | 61 | 183 | 0.0 | 0.0 | 0.15 | 0.56 | 0.28 | 98 | 1010.8 |
| 20260507122007 | 61 | 183 | 0.0 | 0.0 | 0.14 | 0.55 | 0.28 | 98 | 1010.9 |
| 20260507121507 | 61 | 183 | 0.0 | 0.0 | 0.14 | 0.55 | 0.28 | 98 | 1011.0 |
| 20260507121006 | 61 | 183 | 0.0 | 0.0 | 0.14 | 0.54 | 0.27 | 98 | 1011.1 |
| 20260507120509 | 61 | 183 | 0.0 | 0.0 | 0.13 | 0.53 | 0.26 | 98 | 1011.2 |
| 20260507120006 | 61 | 216 | 0.0 | 0.0 | 0.13 | 0.52 | 0.25 | 98 | 1011.8 |
| 20260507115505 | 61 | 216 | 0.0 | 0.0 | 0.14 | 0.51 | 0.24 | 98 | 1012.1 |
| 20260507115005 | 61 | 217 | 0.0 | 0.0 | 0.13 | 0.50 | 0.23 | 98 | 1012.2 |
| 20260507114505 | 61 | 208 | 0.0 | 0.0 | 0.11 | 0.48 | 0.21 | 98 | 1012.3 |
| 20260507114009 | 61 | 209 | 0.0 | 0.0 | 0.09 | 0.46 | 0.19 | 98 | 1012.3 |
| 20260507113504 | 61 | 209 | 0.0 | 0.0 | 0.06 | 0.43 | 0.16 | 98 | 1012.1 |
| 20260507113005 | 61 | 209 | 0.0 | 0.0 | 0.05 | 0.42 | 0.15 | 98 | 1011.9 |
| 20260507112504 | 61 | 125 | 0.0 | 0.0 | 0.04 | 0.41 | 0.14 | 98 | 1011.7 |
| 20260507112005 | 61 | 125 | 0.0 | 0.0 | 0.04 | 0.41 | 0.14 | 98 | 1011.3 |
| 20260507111504 | 61 | 125 | 0.0 | 0.0 | 0.04 | 0.41 | 0.14 | 98 | 1011.0 |
| 20260507111006 | 61 | 125 | 0.0 | 0.0 | 0.03 | 0.40 | 0.13 | 98 | 1010.9 |
| 20260507110503 | 61 | 125 | 0.0 | 0.0 | 0.03 | 0.40 | 0.13 | 98 | 1011.1 |
| 20260507110003 | 61 | 199 | 0.0 | 3.0 | 0.02 | 0.39 | 0.12 | 98 | 1011.4 |
| 20260507105502 | 61 | 210 | 0.0 | 3.0 | 0.00 | 0.37 | 0.10 | 98 | 1011.6 |
| 20260507105002 | 61 | 252 | 0.0 | 0.0 | 0.00 | 0.37 | 0.10 | 98 | 1011.8 |
| 20260507104502 | 61 | 252 | 0.0 | 0.0 | 0.00 | 0.37 | 0.10 | 98 | 1011.1 |
| 20260507104004 | 61 | 252 | 0.0 | 0.0 | 0.00 | 0.37 | 0.10 | 98 | 1011.0 |
| 20260507103501 | 61 | 252 | 0.0 | 0.0 | 0.00 | 0.37 | 0.10 | 98 | 1010.8 |
| 20260507103001 | 61 | 252 | 0.0 | 0.0 | 0.00 | 0.37 | 0.10 | 98 | 1010.7 |
| 20260507102502 | 61 | 252 | 0.0 | 0.0 | 0.00 | 0.37 | 0.10 | 98 | 1010.5 |
| 20260507102003 | 61 | 252 | 0.0 | 0.0 | 0.00 | 0.37 | 0.10 | 98 | 1010.5 |
| 20260507101501 | 61 | 252 | 0.0 | 0.0 | 0.00 | 0.37 | 0.10 | 98 | 1010.3 |
| 20260507101059 | 61 | 252 | 0.0 | 0.0 | 0.00 | 0.37 | 0.10 | 98 | 1010.5 |
| 20260507100558 | 61 | 252 | 0.0 | 0.0 | 0.00 | 0.37 | 0.10 | 98 | 1010.6 |
| 20260507100059 | 61 | 240 | 0.0 | 0.0 | 0.00 | 0.37 | 0.10 | 98 | 1010.8 |
| 20260507095558 | 61 | 227 | 0.0 | 0.0 | 0.00 | 0.37 | 0.10 | 98 | 1010.8 |
| 20260507095058 | 61 | 223 | 0.0 | 0.0 | 0.00 | 0.37 | 0.10 | 97 | 1010.8 |
| 20260507094559 | 61 | 223 | 0.0 | 0.0 | 0.00 | 0.37 | 0.10 | 97 | 1010.9 |
| 20260507094101 | 61 | 223 | 0.0 | 0.0 | 0.00 | 0.37 | 0.10 | 97 | 1010.9 |
| 20260507093559 | 61 | 206 | 0.0 | 0.0 | 0.00 | 0.37 | 0.10 | 98 | 1010.9 |
| 20260507093059 | 61 | 206 | 0.0 | 0.0 | 0.00 | 0.37 | 0.10 | 98 | 1010.8 |
| 20260507092557 | 61 | 206 | 0.0 | 0.0 | 0.00 | 0.37 | 0.10 | 98 | 1010.8 |
| 20260507092056 | 61 | 206 | 0.0 | 0.0 | 0.00 | 0.37 | 0.10 | 98 | 1010.9 |
| 20260507091556 | 61 | 206 | 0.0 | 0.0 | 0.00 | 0.37 | 0.10 | 98 | 1011.3 |
| 20260507091100 | 61 | 206 | 0.0 | 0.0 | 0.00 | 0.37 | 0.10 | 98 | 1011.1 |
| 20260507090555 | 61 | 226 | 0.0 | 0.0 | 0.00 | 0.37 | 0.10 | 98 | 1010.9 |
| 20260507090054 | 61 | 226 | 0.0 | 0.0 | 0.00 | 0.37 | 0.10 | 98 | 1011.1 |
| 20260507085554 | 61 | 226 | 0.0 | 1.0 | 0.00 | 0.37 | 0.10 | 98 | 1010.9 |
| 20260507085054 | 61 | 226 | 0.0 | 1.0 | 0.00 | 0.37 | 0.10 | 98 | 1010.9 |
| 20260507084554 | 61 | 226 | 0.0 | 0.0 | 0.00 | 0.37 | 0.10 | 97 | 1011.0 |
| 20260507084052 | 61 | 226 | 0.0 | 1.0 | 0.00 | 0.37 | 0.10 | 97 | 1011.2 |
| 20260507083552 | 61 | 259 | 0.0 | 3.0 | 0.00 | 0.37 | 0.10 | 97 | 1011.1 |
| 20260507083052 | 62 | 275 | 0.0 | 3.0 | 0.00 | 0.37 | 0.10 | 97 | 1011.1 |
| 20260507082551 | 62 | 281 | 0.0 | 0.0 | 0.00 | 0.37 | 0.10 | 98 | 1011.0 |
| 20260507082053 | 62 | 281 | 0.0 | 0.0 | 0.00 | 0.37 | 0.10 | 97 | 1011.0 |
| 20260507081550 | 62 | 283 | 0.0 | 0.0 | 0.00 | 0.37 | 0.10 | 97 | 1011.2 |
| 20260507081050 | 62 | 283 | 0.0 | 0.0 | 0.00 | 0.37 | 0.10 | 97 | 1011.4 |
| 20260507080550 | 62 | 275 | 0.0 | 0.0 | 0.00 | 0.37 | 0.10 | 97 | 1011.1 |
| 20260507080053 | 62 | 275 | 0.0 | 0.0 | 0.01 | 0.37 | 0.10 | 98 | 1011.2 |
| 20260507075551 | 62 | 275 | 0.0 | 2.0 | 0.01 | 0.37 | 0.10 | 98 | 1011.3 |
| 20260507075051 | 62 | 275 | 0.0 | 2.0 | 0.01 | 0.37 | 0.10 | 98 | 1011.0 |
| 20260507074548 | 62 | 312 | 0.0 | 0.0 | 0.01 | 0.37 | 0.10 | 98 | 1011.1 |
| 20260507074048 | 62 | 312 | 0.0 | 0.0 | 0.01 | 0.37 | 0.10 | 98 | 1011.0 |
| 20260507073549 | 62 | 312 | 0.0 | 0.0 | 0.01 | 0.37 | 0.10 | 98 | 1010.9 |
| 20260507073049 | 62 | 312 | 0.0 | 0.0 | 0.01 | 0.37 | 0.10 | 98 | 1010.9 |
| 20260507072548 | 62 | 312 | 0.0 | 0.0 | 0.01 | 0.37 | 0.10 | 98 | 1011.0 |
| 20260507072049 | 62 | 312 | 0.0 | 0.0 | 0.01 | 0.37 | 0.10 | 98 | 1011.1 |
| 20260507071604 | 62 | 312 | 0.0 | 0.0 | 0.01 | 0.37 | 0.10 | 97 | 1011.1 |
| 20260507071046 | 62 | 312 | 0.0 | 0.0 | 0.01 | 0.37 | 0.10 | 97 | 1011.4 |
| 20260507070545 | 62 | 312 | 0.0 | 0.0 | 0.01 | 0.37 | 0.10 | 97 | 1011.5 |
| 20260507070045 | 62 | 312 | 0.0 | 0.0 | 0.00 | 0.36 | 0.09 | 97 | 1011.4 |
| 20260507065644 | 62 | 312 | 0.0 | 0.0 | 0.00 | 0.36 | 0.09 | 97 | 1011.5 |
| 20260507065042 | 62 | 312 | 0.0 | 0.0 | 0.00 | 0.36 | 0.09 | 97 | 1011.7 |
| 20260507064542 | 62 | 312 | 0.0 | 0.0 | 0.00 | 0.36 | 0.09 | 97 | 1012.1 |
| 20260507064042 | 63 | 312 | 0.0 | 0.0 | 0.00 | 0.36 | 0.09 | 97 | 1012.1 |
| 20260507063541 | 63 | 312 | 0.0 | 0.0 | 0.00 | 0.36 | 0.09 | 97 | 1012.3 |
| 20260507063045 | 63 | 312 | 0.0 | 0.0 | 0.00 | 0.36 | 0.09 | 97 | 1012.4 |
| 20260507062541 | 63 | 312 | 0.0 | 0.0 | 0.01 | 0.36 | 0.09 | 97 | 1012.2 |
| 20260507062041 | 63 | 312 | 0.0 | 0.0 | 0.02 | 0.36 | 0.09 | 97 | 1012.2 |
| 20260507061541 | 63 | 312 | 0.0 | 0.0 | 0.02 | 0.36 | 0.09 | 97 | 1012.1 |
| 20260507061040 | 63 | 312 | 0.0 | 0.0 | 0.03 | 0.36 | 0.09 | 97 | 1012.1 |
| 20260507060538 | 63 | 312 | 0.0 | 0.0 | 0.03 | 0.36 | 0.09 | 97 | 1012.1 |
| 20260507060039 | 63 | 312 | 0.0 | 0.0 | 0.04 | 0.36 | 0.09 | 97 | 1012.6 |
| 20260507055538 | 63 | 312 | 0.0 | 0.0 | 0.05 | 0.36 | 0.09 | 97 | 1012.9 |
| 20260507055037 | 63 | 312 | 0.0 | 0.0 | 0.05 | 0.36 | 0.09 | 97 | 1012.9 |
| 20260507054537 | 63 | 312 | 0.0 | 0.0 | 0.06 | 0.36 | 0.09 | 97 | 1013.0 |
| 20260507054037 | 63 | 312 | 0.0 | 0.0 | 0.06 | 0.36 | 0.09 | 97 | 1012.8 |
| 20260507053538 | 63 | 312 | 0.0 | 1.0 | 0.06 | 0.36 | 0.09 | 97 | 1012.7 |
| 20260507053104 | 63 | 312 | 0.0 | 2.0 | 0.06 | 0.36 | 0.09 | 97 | 1012.9 |
| 20260507052537 | 63 | 250 | 0.0 | 0.0 | 0.06 | 0.35 | 0.08 | 97 | 1013.3 |
| 20260507052034 | 63 | 112 | 0.0 | 0.0 | 0.06 | 0.34 | 0.07 | 97 | 1013.6 |
| 20260507051541 | 63 | 203 | 0.0 | 0.0 | 0.07 | 0.34 | 0.07 | 97 | 1013.9 |
| 20260507051032 | 63 | 203 | 0.0 | 0.0 | 0.06 | 0.33 | 0.06 | 97 | 1013.8 |
| 20260507050532 | 63 | 72 | 0.0 | 0.0 | 0.06 | 0.33 | 0.06 | 97 | 1013.4 |
| 20260507050036 | 63 | 72 | 0.0 | 0.0 | 0.05 | 0.32 | 0.05 | 97 | 1013.9 |
| 20260507045532 | 63 | 72 | 0.0 | 0.0 | 0.04 | 0.31 | 0.04 | 97 | 1013.6 |
| 20260507045032 | 63 | 107 | 0.0 | 0.0 | 0.04 | 0.31 | 0.04 | 97 | 1013.5 |
| 20260507044532 | 63 | 208 | 0.0 | 0.0 | 0.03 | 0.30 | 0.03 | 97 | 1014.2 |
| 20260507044030 | 63 | 208 | 0.0 | 0.0 | 0.03 | 0.30 | 0.03 | 97 | 1014.1 |
| 20260507043530 | 63 | 203 | 0.0 | 0.0 | 0.03 | 0.30 | 0.03 | 97 | 1013.8 |
| 20260507043031 | 63 | 65 | 0.0 | 0.0 | 0.04 | 0.30 | 0.03 | 97 | 1013.6 |
| 20260507042533 | 63 | 65 | 0.0 | 0.0 | 0.03 | 0.28 | 0.02 | 97 | 1013.9 |
| 20260507042029 | 63 | 65 | 0.0 | 0.0 | 0.02 | 0.28 | 0.01 | 97 | 1013.8 |
| 20260507041529 | 63 | 65 | 0.0 | 0.0 | 0.01 | 0.27 | 0.00 | 97 | 1013.9 |
| 20260507041029 | 63 | 65 | 0.0 | 0.0 | 0.01 | 0.27 | 0.00 | 97 | 1013.7 |
| 20260507040527 | 64 | 64 | 0.0 | 0.0 | 0.01 | 0.27 | 0.00 | 97 | 1013.6 |
| 20260507040029 | 64 | 64 | 0.0 | 0.0 | 0.01 | 0.27 | 0.00 | 97 | 1013.4 |
| 20260507035526 | 64 | 82 | 0.0 | 0.0 | 0.01 | 0.27 | 0.27 | 97 | 1013.0 |
| 20260507035027 | 64 | 86 | 0.0 | 0.0 | 0.01 | 0.27 | 0.27 | 97 | 1013.2 |